Weather History for Lawrence, KS

Change the Weather History Date:

Monday, October 21, 2013

  Actual Average Record
Temperature  
Mean Temperature 48 °F 54 °F  
Max Temperature 58 °F 67 °F 82 °F (2003)
Min Temperature 37 °F 42 °F 23 °F (2011)
Degree Days  
Heating Degree Days 17 11  
Month to date heating degree days 158 171  
Since 1 July heating degree days 181 234  
Cooling Degree Days 0 0  
Month to date cooling degree days 36 24  
Year to date cooling degree days 1492 1368  
Moisture  
Dew Point 34 °F    
Average Humidity 59    
Maximum Humidity 85    
Minimum Humidity 32    
Precipitation  
Precipitation 0.00 in 0.08 in 0.85 in (2006)
Month to date precipitation 1.64 2.17  
Year to date precipitation 25.26 34.19  
Sea Level Pressure  
Sea Level Pressure 30.08 in    
Wind  
Wind Speed 7 mph (North)    
Max Wind Speed 15 mph    
Max Gust Speed 20 mph    
Visibility 10 miles    
Events      
T = Trace of Precipitation, MM = Missing Value Source: NWS Daily Summary

Daily Weather History Graph

Daily Weather History Graph

Search for Another Location

Airport:

Trip Planner

Search our weather history database for the weather conditions in past years. The results will help you decide how hot, cold, wet, or windy it might be!

Date:

Astronomy

Oct. 21, 2013 Rise Set
Actual Time 7:36 AM CDT 6:33 PM CDT
Civil Twilight 7:09 AM CDT 7:00 PM CDT
Nautical Twilight 6:38 AM CDT 7:31 PM CDT
Astronomical Twilight 6:07 AM CDT 8:02 PM CDT
Moon 8:28 PM CDT (10/21) 10:11 AM CDT (10/21)
Length of Visible Light 11h 50m
Length of Day
10h 56m
Waning Gibbous, 92% of the Moon is Illuminated
Oct 21
Waning Gibbous
Oct 26
Last Quarter
Nov 3
New
Nov 9
First Quarter
Nov 17
Full

Hourly Weather History & Observations

Time (CDT) Temp. Windchill Dew Point Humidity Pressure Visibility Wind Dir Wind Speed Gust Speed Precip Events Conditions
12:52 AM 55.9 °F - 41.0 °F 57% 29.97 in 10.0 mi North 11.5 mph - 0.00 in   Mostly Cloudy
1:52 AM 52.0 °F - 39.0 °F 61% 30.01 in 10.0 mi North 11.5 mph - N/A   Partly Cloudy
2:52 AM 50.0 °F - 39.0 °F 66% 30.03 in 10.0 mi North 5.8 mph - N/A   Mostly Cloudy
3:52 AM 48.0 °F - 39.0 °F 71% 30.05 in 10.0 mi NNW 8.1 mph - N/A   Clear
4:52 AM 46.0 °F 43.1 °F 37.9 °F 73% 30.06 in 10.0 mi NNW 5.8 mph - N/A   Mostly Cloudy
5:52 AM 46.0 °F 40.2 °F 36.0 °F 68% 30.09 in 10.0 mi North 12.7 mph 20.7 mph N/A   Overcast
6:52 AM 43.0 °F 37.2 °F 34.0 °F 71% 30.10 in 10.0 mi NNW 10.4 mph - N/A   Scattered Clouds
7:52 AM 39.9 °F 35.1 °F 33.1 °F 77% 30.13 in 10.0 mi NNW 6.9 mph - N/A   Clear
8:52 AM 42.1 °F 39.2 °F 34.0 °F 73% 30.14 in 10.0 mi NNW 4.6 mph - N/A   Clear
9:52 AM 46.9 °F - 34.0 °F 61% 30.15 in 10.0 mi North 8.1 mph - N/A   Clear
10:52 AM 48.0 °F - 32.0 °F 54% 30.16 in 10.0 mi North 8.1 mph - N/A   Clear
11:52 AM 53.1 °F - 30.0 °F 41% 30.14 in 10.0 mi North 6.9 mph - N/A   Clear
12:52 PM 55.0 °F - 27.0 °F 34% 30.13 in 10.0 mi North 10.4 mph - N/A   Clear
1:52 PM 55.9 °F - 28.0 °F 34% 30.10 in 10.0 mi Variable 3.5 mph - N/A   Clear
2:52 PM 57.0 °F - 30.0 °F 36% 30.08 in 10.0 mi WNW 10.4 mph - N/A   Clear
3:52 PM 55.9 °F - 30.9 °F 39% 30.07 in 10.0 mi Variable 6.9 mph - N/A   Partly Cloudy
4:52 PM 57.0 °F - 33.1 °F 40% 30.06 in 10.0 mi Variable 4.6 mph - N/A   Clear
5:52 PM 55.0 °F - 33.1 °F 43% 30.06 in 10.0 mi West 5.8 mph - N/A   Clear
6:52 PM 46.0 °F - 33.1 °F 61% 30.05 in 10.0 mi Calm Calm - N/A   Clear
7:52 PM 41.0 °F 39.0 °F 35.1 °F 79% 30.06 in 10.0 mi ESE 3.5 mph - N/A   Clear
8:52 PM 39.0 °F - 34.0 °F 82% 30.06 in 10.0 mi Calm Calm - N/A   Clear
9:52 PM 39.0 °F 35.7 °F 34.0 °F 82% 30.05 in 10.0 mi SE 4.6 mph - N/A   Clear
10:52 PM 39.0 °F 35.7 °F 33.1 °F 79% 30.04 in 10.0 mi ESE 4.6 mph - N/A   Clear
11:52 PM 37.9 °F 32.7 °F 33.1 °F 83% 30.02 in 10.0 mi SE 6.9 mph - N/A   Clear